Flag for U.S.A. Weather past 2 weeks in Baltimore, Maryland, U.S.A.

Now
54 °F

Passing clouds.


Feels Like: 50 °F
Forecast: 35 / 56 °F
Wind: 13 mph from West

Location: Baltimore-Washington International Airport

Current Time: Apr 1, 2015 at 2:41:48 PM

Latest Report: Apr 1, 2015 at 1:54 PM


Visibility: 10 mi

Pressure: 30.14 "Hg

Humidity: 31%

Dew point: 24 °F

Location of BaltimoreLocation

Historic Weather in Baltimore — Graph

°F

Baltimore temperature yesterday

Maximum temperature yesterday: 67 °F (at 2:54 PM)
Minimum temperature yesterday: 39 °F (at 5:54 AM)
Average temperature yesterday: 51 °F

Past Weeks' High & Low Weather Summary

 TemperatureHumidityPressure
High74 °F (Mar 26, 4:54 PM)97% (Mar 20, 6:54 PM)30.41 "Hg (Mar 20, 6:54 PM)
Low22 °F (Mar 29, 6:54 AM)19% (Mar 18, 2:54 PM)29.57 "Hg (Mar 26, 6:54 PM)
Average41 °F53%30.07 "Hg
* Reported Mar 17 12:54 PM — Apr 1 12:54 PM, Baltimore, Weather by CustomWeather, © 2015

Note: Actual official high and low records may vary slightly from our data, if they occured in-between our weather recording intervals... More about our weather records

Advertising

Baltimore weather history for previous 24 hours

 ConditionsComfort  
Time TempWeatherWind HumidityBarometerVisibility
12:54 PM
Wed, Apr 1
51 °FPassing clouds.8 mph36%30.14 "Hg10 mi
11:54 AM49 °FPassing clouds.10 mph41%30.15 "Hg10 mi
10:54 AM47 °FPassing clouds.9 mph42%30.15 "Hg10 mi
9:54 AM45 °FPassing clouds.7 mph48%30.14 "Hg10 mi
8:54 AM42 °FPassing clouds.5 mph55%30.12 "Hg10 mi
7:54 AM36 °FPassing clouds.3 mph75%30.09 "Hg10 mi
6:54 AM32 °FPassing clouds.No wind85%30.05 "Hg10 mi
5:54 AM33 °FClear.No wind82%30.01 "Hg10 mi
4:54 AM32 °FClear.3 mph85%29.98 "Hg10 mi
3:54 AM33 °FClear.No wind82%29.96 "Hg10 mi
2:54 AM37 °FPassing clouds.3 mph70%29.96 "Hg10 mi
1:54 AM39 °FPassing clouds.10 mph67%29.92 "Hg10 mi
12:54 AM39 °FPassing clouds.14 mph67%29.92 "Hg10 mi
11:54 PM
Tue, Mar 31
40 °FPassing clouds.16 mph70%29.89 "Hg10 mi
10:54 PM43 °FPassing clouds.12 mph74%29.84 "Hg10 mi
9:54 PM46 °FPassing clouds.7 mph68%29.81 "Hg10 mi
8:54 PM48 °FPartly cloudy.9 mph68%29.77 "Hg10 mi
7:54 PM52 °FLight rain. Partly sunny.7 mph69%29.70 "Hg10 mi
6:54 PM58 °FBroken clouds.20 mph56%29.64 "Hg10 mi
5:54 PM58 °FLight rain. Partly sunny.9 mph58%29.59 "Hg10 mi
4:54 PM57 °FLight rain. Mostly cloudy.13 mph55%29.61 "Hg10 mi
3:54 PM65 °FPartly sunny.13 mph24%29.59 "Hg10 mi
2:54 PM67 °FBroken clouds.20 mph23%29.60 "Hg10 mi
Weather by CustomWeather, © 2015

See weather overviewHow to use our weather pages